GSLV R/B, 62851

Orbit data source: Space-Track

GSLV R/B, 62851 is space debris in HEO originally from a launch on Wed, 29 Jan 2025 UTC launched from the Sirharikota (SRI). Debris objects in space refer to the collection of defunct objects orbiting the Earth. Examples of debris include non-operational satellites, rocket bodies, and fragments generated from explosions, collisions, or faulty payload assembly.

Loading next visibility...
Identifier
62851, 2025-020B
Orbit
HEO
Country
Flag of ININ / IND
Related business
Manufacturer
ISRO
Mission
Spacecraft
Bus & Motor
CUS15, Unknown motor
Mass
2,630 kg wet, 2,630 kg dry
Launch date (UTC)
2025-01-29 (9 months ago)
Launch vehicle
Unknown
Launch site
Sirharikota (SRI)
Object type
Payload
Rocket body
Debris
Shape & HBR
Cyl, 3.6 m
Radar Cross Section
22.211 m², Large (>1 m²)

Expand to show TLE details & history
Last TLE update: 2 days ago

TLE from 2 days ago
0 GSLV R/B
1 62851U 25020B   25301.38816963  .00024884  62253-6  16188-2 0  9992
2 62851  21.0371 336.8866 7199102   9.6281 359.0686  2.41598195  6202
Epoch: 2025-10-28T09:18Z
TLE epoch observation values (Epoch: 2025-10-28T09:18:57.856Z)
Latitude
-0.00008°
Longitude
160.16152°
Altitude
232.866 km
Speed
10.178 km/s
True Right ascension
22h 27m 30s
True Declination
0° 00' 00"
Sunlit
Object was in full shadow at epoch
Visualization orbit readout
Latitude
Unknown
Longitude
Unknown
Altitude
Unknown
Speed
Unknown
Apparent Right ascension
Unknown
Apparent Declination
Unknown
Sunlit
N/A
Visualization observer readout
Local Sidereal Time
21:59:53
Azimuth
Unknown
Elevation
Unknown
Doppler factor
Unknown
Orbital elements
Apogee altitude
33,979.829 km
Perigee altitude
194.215 km
Semi-major axis
23,465.159 km
Eccentricity
0.71991
Inclination
21.0371°
RAAN
336.8866°
Arg. of periapsis
9.6281°
True anomaly
351.78334°
Mean anomaly
359.0686°
Eccentric anomaly
356.67941°
Mean motion
0.60382 °/min
Orbital period
596.2 mins
BSTAR
0.0016188
Loading maneuver chart data...
Computing Atmospheric mass density...
Loading historical data...
Loading historical data...
Loading historical data...
Loading historical data...
Loading historical data...
Loading historical data...
Loading historical data...
Other satellites on launch #20 in the year 2025 (2025-01-29 UTC)

Documentation

Showing up to 5 results
|